{"data":{"norad_id":44744,"intl_designator":"2019-074AH","name":"STARLINK-1039","alt_names":[],"object_type":"PAYLOAD","status":"ACTIVE","operator":null,"country":"US","launch_date":"2019-11-11","launch_site_code":"AFETR","launch_vehicle":null,"mission":null,"orbit_class":"UNKNOWN","rcs_meters":null,"size_class":null,"mass_kg":null,"dimensions":null,"purposes":["comms"],"wikipedia_slug":null,"has_3d_model":false,"image_url":null,"decayed_at":null,"tle_current":{"epoch":"2026-05-24T21:46:54.795360Z","epoch_age_seconds":93155,"freshness":"FRESH","line1":"1 44744U 19074AH  26144.90757865  .00027121  00000+0  10031-2 0  9997","line2":"2 44744  53.0577 223.1269 0002967   4.0729 356.0293 15.27524691359987","mean_motion":15.27524691,"eccentricity":0.0002967,"inclination_deg":53.0577,"raan_deg":223.1269,"arg_perigee_deg":4.0729,"mean_anomaly_deg":356.0293,"bstar":0.0010031,"rev_number":35998,"period_min":94.270161947909,"perigee_km":481.17895302597,"apogee_km":485.2504791343,"semimajor_km":6861.3517160801,"source":"CELESTRAK","updated_at":"2026-05-25T13:38:16.372941Z"}}}